| time (UTC) | temp F | wind direction | speed knots | gust knots | rain 1hr in | rain 24hr in | rain mn in | humidity % | barometer mb |
| 20260906173516 | 81 | 158 | 4.3 | 8.7 | 0.00 | 0.00 | 0.00 | 75 | 1018.7 |
| 20260906172517 | 81 | 158 | 4.3 | 12.2 | 0.00 | 0.00 | 0.00 | 75 | 1018.7 |
| 20260906171516 | 80 | 113 | 3.5 | 7.8 | 0.00 | 0.00 | 0.00 | 76 | 1018.9 |
| 20260906170557 | 80 | 135 | 2.6 | 6.1 | 0.00 | 0.00 | 0.00 | 78 | 1019.0 |
| 20260906165516 | 79 | 158 | 4.3 | 7.0 | 0.00 | 0.00 | 0.00 | 76 | 1019.1 |
| 20260906164516 | 79 | 135 | 3.5 | 7.8 | 0.00 | 0.00 | 0.00 | 78 | 1019.0 |
| 20260906163516 | 78 | 135 | 2.6 | 10.4 | 0.00 | 0.00 | 0.00 | 79 | 1019.1 |
| 20260906162536 | 78 | 158 | 3.5 | 8.7 | 0.00 | 0.00 | 0.00 | 80 | 1019.2 |
| 20260906161516 | 77 | 135 | 4.3 | 8.7 | 0.00 | 0.00 | 0.00 | 81 | 1019.1 |
| 20260906160516 | 77 | 158 | 4.3 | 8.7 | 0.00 | 0.00 | 0.00 | 83 | 1019.7 |
| 20260906155536 | 76 | 180 | 4.3 | 8.7 | 0.00 | 0.00 | 0.00 | 84 | 1019.4 |
| 20260906154516 | 75 | 158 | 3.5 | 7.8 | 0.00 | 0.00 | 0.00 | 87 | 1019.2 |
| 20260906153516 | 74 | 180 | 3.5 | 7.8 | 0.00 | 0.00 | 0.00 | 87 | 1019.3 |
| 20260906152516 | 73 | 158 | 4.3 | 8.7 | 0.00 | 0.00 | 0.00 | 88 | 1019.4 |
| 20260906151557 | 72 | 158 | 3.5 | 9.6 | 0.00 | 0.00 | 0.00 | 90 | 1019.4 |
| 20260906150516 | 72 | 135 | 3.5 | 9.6 | 0.00 | 0.00 | 0.00 | 91 | 1019.3 |
| 20260906145536 | 72 | 135 | 3.5 | 9.6 | 0.00 | 0.00 | 0.00 | 92 | 1019.2 |
| 20260906144537 | 72 | 135 | 2.6 | 7.0 | 0.00 | 0.00 | 0.00 | 93 | 1019.2 |
| 20260906143516 | 72 | 90 | 3.5 | 7.8 | 0.00 | 0.00 | 0.00 | 94 | 1019.3 |
| 20260906142516 | 71 | 113 | 3.5 | 7.8 | 0.00 | 0.00 | 0.00 | 95 | 1019.2 |
| 20260906141516 | 71 | 158 | 3.5 | 7.0 | 0.00 | 0.00 | 0.00 | 95 | 1019.0 |
| 20260906140516 | 70 | 135 | 2.6 | 5.2 | 0.00 | 0.00 | 0.00 | 95 | 1019.2 |
| 20260906135517 | 70 | 135 | 2.6 | 6.1 | 0.00 | 0.00 | 0.00 | 96 | 1019.0 |
| 20260906134516 | 70 | 135 | 1.7 | 5.2 | 0.00 | 0.00 | 0.00 | 96 | 1019.0 |
| 20260906133516 | 69 | 135 | 3.5 | 7.0 | 0.00 | 0.00 | 0.00 | 96 | 1018.9 |
| 20260906132536 | 69 | 158 | 1.7 | 6.1 | 0.00 | 0.00 | 0.00 | 96 | 1018.9 |
| 20260906131516 | 69 | 158 | 1.7 | 4.3 | 0.00 | 0.00 | 0.00 | 96 | 1018.9 |
| 20260906130536 | 69 | 113 | 1.7 | 5.2 | 0.00 | 0.00 | 0.00 | 96 | 1018.8 |
| 20260906125516 | 68 | 113 | 1.7 | 5.2 | 0.00 | 0.00 | 0.00 | 96 | 1018.8 |
| 20260906124516 | 68 | 113 | 1.7 | 3.5 | 0.00 | 0.00 | 0.00 | 96 | 1018.8 |
| 20260906123536 | 67 | 113 | 0.9 | 2.6 | 0.00 | 0.00 | 0.00 | 95 | 1018.8 |
| 20260906122516 | 67 | 135 | 0.9 | 1.7 | 0.00 | 0.00 | 0.00 | 95 | 1018.8 |
| 20260906121535 | 67 | 158 | 0.9 | 2.6 | 0.00 | 0.00 | 0.00 | 95 | 1018.6 |
| 20260906120515 | 67 | 135 | 0.9 | 3.5 | 0.00 | 0.00 | 0.00 | 95 | 1018.7 |
| 20260906115516 | 67 | 135 | 0.9 | 1.7 | 0.00 | 0.00 | 0.00 | 95 | 1018.6 |
| 20260906114516 | 67 | 0.0 | 1.7 | 0.00 | 0.00 | 0.00 | 95 | 1018.5 | |
| 20260906113516 | 67 | 0.0 | 0.9 | 0.00 | 0.00 | 0.00 | 95 | 1018.4 | |
| 20260906112516 | 67 | 0.0 | 1.7 | 0.00 | 0.00 | 0.00 | 95 | 1018.3 | |
| 20260906111516 | 67 | 135 | 0.9 | 2.6 | 0.00 | 0.00 | 0.00 | 95 | 1018.3 |
| 20260906110515 | 67 | 158 | 0.9 | 1.7 | 0.00 | 0.00 | 0.00 | 95 | 1018.2 |
| 20260906105516 | 67 | 158 | 0.9 | 1.7 | 0.00 | 0.00 | 0.00 | 95 | 1018.3 |
| 20260906104516 | 68 | 135 | 0.9 | 3.5 | 0.00 | 0.00 | 0.00 | 95 | 1018.2 |
| 20260906103516 | 68 | 135 | 1.7 | 3.5 | 0.00 | 0.00 | 0.00 | 95 | 1018.1 |
| 20260906102537 | 68 | 113 | 0.9 | 2.6 | 0.00 | 0.00 | 0.00 | 94 | 1018.1 |
| 20260906101515 | 68 | 113 | 0.9 | 2.6 | 0.00 | 0.00 | 0.00 | 94 | 1018.2 |
| 20260906100516 | 68 | 113 | 0.9 | 1.7 | 0.00 | 0.00 | 0.00 | 94 | 1018.1 |
| 20260906095516 | 68 | 0.0 | 1.7 | 0.00 | 0.00 | 0.00 | 94 | 1017.9 | |
| 20260906094515 | 68 | 113 | 1.7 | 2.6 | 0.00 | 0.00 | 0.00 | 94 | 1017.5 |
| 20260906093537 | 68 | 113 | 1.7 | 3.5 | 0.00 | 0.00 | 0.00 | 94 | 1017.6 |
| 20260906092515 | 68 | 113 | 1.7 | 5.2 | 0.00 | 0.00 | 0.00 | 94 | 1017.5 |
| 20260906091515 | 68 | 135 | 0.9 | 2.6 | 0.00 | 0.00 | 0.00 | 94 | 1017.3 |
| 20260906090515 | 68 | 90 | 0.9 | 2.6 | 0.00 | 0.00 | 0.00 | 94 | 1017.5 |
| 20260906085517 | 68 | 90 | 0.9 | 1.7 | 0.00 | 0.00 | 0.00 | 94 | 1017.4 |
| 20260906084536 | 68 | 90 | 0.9 | 1.7 | 0.00 | 0.00 | 0.00 | 93 | 1017.4 |
| 20260906083516 | 68 | 90 | 0.9 | 1.7 | 0.00 | 0.00 | 0.00 | 93 | 1017.3 |
| 20260906082515 | 68 | 90 | 0.9 | 2.6 | 0.00 | 0.00 | 0.00 | 93 | 1017.4 |
| 20260906081517 | 68 | 90 | 0.9 | 1.7 | 0.00 | 0.00 | 0.00 | 93 | 1017.4 |
| 20260906080517 | 68 | 90 | 0.9 | 1.7 | 0.00 | 0.00 | 0.00 | 93 | 1017.3 |
| 20260906075537 | 69 | 90 | 0.9 | 1.7 | 0.00 | 0.00 | 0.00 | 93 | 1017.3 |
| 20260906074517 | 69 | 90 | 0.9 | 1.7 | 0.00 | 0.00 | 0.00 | 93 | 1017.4 |
| 20260906073517 | 69 | 0.0 | 1.7 | 0.00 | 0.00 | 0.00 | 93 | 1017.4 | |
| 20260906072518 | 69 | 90 | 0.9 | 1.7 | 0.00 | 0.00 | 0.00 | 92 | 1017.5 |
| 20260906071517 | 69 | 0.0 | 1.7 | 0.00 | 0.00 | 0.00 | 92 | 1017.6 | |
| 20260906070517 | 69 | 90 | 0.9 | 1.7 | 0.00 | 0.00 | 0.00 | 92 | 1017.6 |
| 20260906065517 | 69 | 90 | 1.7 | 2.6 | 0.00 | 0.00 | 0.00 | 92 | 1017.6 |
| 20260906064517 | 69 | 90 | 1.7 | 2.6 | 0.00 | 0.00 | 0.00 | 92 | 1017.8 |
| 20260906063517 | 70 | 90 | 1.7 | 2.6 | 0.00 | 0.00 | 0.00 | 92 | 1017.7 |
| 20260906062517 | 70 | 113 | 0.9 | 2.6 | 0.00 | 0.00 | 0.00 | 92 | 1017.7 |
| 20260906061518 | 70 | 90 | 1.7 | 3.5 | 0.00 | 0.00 | 0.00 | 92 | 1017.8 |
| 20260906060538 | 70 | 90 | 0.9 | 3.5 | 0.00 | 0.00 | 0.00 | 92 | 1017.6 |
| 20260906055517 | 70 | 90 | 0.9 | 2.6 | 0.00 | 0.00 | 0.00 | 91 | 1017.7 |
| 20260906054517 | 70 | 0.0 | 0.0 | 0.00 | 0.00 | 0.00 | 91 | 1017.7 | |
| 20260906053517 | 70 | 90 | 0.9 | 1.7 | 0.00 | 0.00 | 0.00 | 91 | 1017.6 |
| 20260906052537 | 70 | 90 | 0.9 | 1.7 | 0.00 | 0.00 | 0.00 | 91 | 1017.7 |
| 20260906051517 | 70 | 0.0 | 1.7 | 0.00 | 0.00 | 0.00 | 90 | 1017.7 | |
| 20260906050518 | 70 | 0.0 | 0.9 | 0.00 | 0.00 | 0.00 | 90 | 1017.6 | |
| 20260906045518 | 70 | 90 | 0.9 | 1.7 | 0.00 | 0.00 | 0.00 | 89 | 1017.6 |
| 20260906044538 | 70 | 0.0 | 0.0 | 0.00 | 0.00 | 0.00 | 89 | 1017.6 | |
| 20260906043517 | 70 | 0.0 | 0.0 | 0.00 | 0.00 | 0.00 | 89 | 1017.6 | |
| 20260906042518 | 71 | 0.0 | 0.0 | 0.00 | 0.00 | 0.00 | 89 | 1017.7 | |
| 20260906041517 | 71 | 0.0 | 0.9 | 0.00 | 0.00 | 0.00 | 88 | 1017.8 | |
| 20260906040537 | 71 | 0.0 | 0.0 | 0.00 | 0.00 | 0.00 | 87 | 1017.7 | |
| 20260906035517 | 71 | 0.0 | 0.9 | 0.00 | 0.00 | 0.00 | 86 | 1017.7 | |
| 20260906034517 | 71 | 0.0 | 0.0 | 0.00 | 0.00 | 0.00 | 86 | 1017.7 | |
| 20260906033517 | 71 | 0.0 | 0.9 | 0.00 | 0.00 | 0.00 | 86 | 1017.8 | |
| 20260906032517 | 72 | 90 | 0.9 | 1.7 | 0.00 | 0.00 | 0.00 | 85 | 1017.8 |
| 20260906031517 | 72 | 0.0 | 0.0 | 0.00 | 0.00 | 0.00 | 84 | 1018.0 | |
| 20260906030517 | 72 | 0.0 | 0.9 | 0.00 | 0.00 | 0.00 | 84 | 1017.9 | |
| 20260906025517 | 73 | 90 | 0.9 | 0.9 | 0.00 | 0.00 | 0.00 | 84 | 1018.0 |
| 20260906024517 | 73 | 0.0 | 0.0 | 0.00 | 0.00 | 0.00 | 84 | 1018.2 | |
| 20260906023517 | 73 | 0.0 | 0.9 | 0.00 | 0.00 | 0.00 | 83 | 1017.9 | |
| 20260906022517 | 74 | 90 | 0.9 | 1.7 | 0.00 | 0.00 | 0.00 | 82 | 1017.9 |
| 20260906021517 | 74 | 90 | 0.9 | 1.7 | 0.00 | 0.00 | 0.00 | 81 | 1017.5 |
| 20260906020517 | 75 | 90 | 0.9 | 1.7 | 0.00 | 0.00 | 0.00 | 80 | 1017.2 |
| 20260906015517 | 75 | 90 | 0.9 | 1.7 | 0.00 | 0.00 | 0.00 | 79 | 1016.8 |
| 20260906014537 | 76 | 90 | 0.9 | 2.6 | 0.00 | 0.00 | 0.00 | 78 | 1016.4 |
| 20260906013518 | 76 | 90 | 0.9 | 3.5 | 0.00 | 0.00 | 0.00 | 77 | 1016.3 |
| 20260906012517 | 76 | 113 | 1.7 | 3.5 | 0.00 | 0.00 | 0.00 | 76 | 1016.2 |
| 20260906011517 | 77 | 135 | 0.9 | 3.5 | 0.00 | 0.00 | 0.00 | 75 | 1016.2 |
| 20260906010517 | 77 | 135 | 1.7 | 5.2 | 0.00 | 0.00 | 0.00 | 75 | 1016.0 |
| 20260906005517 | 78 | 90 | 1.7 | 3.5 | 0.00 | 0.00 | 0.00 | 74 | 1015.6 |
| 20260906004517 | 78 | 158 | 0.9 | 4.3 | 0.00 | 0.00 | 0.00 | 74 | 1015.6 |
| 20260906003517 | 79 | 90 | 2.6 | 7.0 | 0.00 | 0.00 | 0.00 | 74 | 1015.2 |
| 20260906002516 | 79 | 113 | 3.5 | 7.8 | 0.00 | 0.00 | 0.00 | 73 | 1015.2 |
| 20260906001517 | 80 | 113 | 4.3 | 7.8 | 0.00 | 0.00 | 0.00 | 73 | 1015.2 |
| 20260906000517 | 80 | 113 | 2.6 | 7.0 | 0.00 | 0.00 | 0.00 | 72 | 1015.3 |
| 20260905235517 | 80 | 90 | 1.7 | 6.1 | 0.00 | 0.00 | 0.00 | 72 | 1015.6 |
| 20260905234517 | 81 | 90 | 3.5 | 8.7 | 0.00 | 0.00 | 0.00 | 72 | 1015.5 |
| 20260905233517 | 81 | 68 | 3.5 | 7.8 | 0.00 | 0.00 | 0.00 | 71 | 1015.3 |
| 20260905232517 | 81 | 68 | 1.7 | 3.5 | 0.00 | 0.00 | 0.00 | 71 | 1015.3 |
| 20260905231517 | 81 | 68 | 5.2 | 9.6 | 0.00 | 0.00 | 0.00 | 70 | 1015.0 |
| 20260905230517 | 82 | 113 | 4.3 | 7.8 | 0.00 | 0.00 | 0.00 | 69 | 1015.0 |
| 20260905225516 | 82 | 113 | 2.6 | 6.1 | 0.00 | 0.00 | 0.00 | 69 | 1014.9 |
| 20260905224517 | 82 | 68 | 6.1 | 13.0 | 0.00 | 0.00 | 0.00 | 67 | 1014.9 |
| 20260905223517 | 83 | 68 | 7.0 | 12.2 | 0.00 | 0.00 | 0.00 | 66 | 1015.1 |
| 20260905222537 | 83 | 68 | 5.2 | 13.0 | 0.00 | 0.00 | 0.00 | 66 | 1015.3 |
| 20260905221537 | 84 | 68 | 7.0 | 12.2 | 0.00 | 0.00 | 0.00 | 64 | 1015.5 |
| 20260905220517 | 84 | 90 | 2.6 | 8.7 | 0.00 | 0.00 | 0.00 | 65 | 1015.7 |
| 20260905215516 | 84 | 45 | 4.3 | 8.7 | 0.00 | 0.00 | 0.00 | 67 | 1015.3 |
| 20260905214537 | 84 | 68 | 6.1 | 13.0 | 0.00 | 0.00 | 0.00 | 66 | 1015.2 |
| 20260905213516 | 85 | 90 | 5.2 | 10.4 | 0.00 | 0.00 | 0.00 | 68 | 1015.4 |
| 20260905212516 | 85 | 68 | 6.1 | 9.6 | 0.00 | 0.00 | 0.00 | 67 | 1015.6 |
| 20260905211516 | 85 | 68 | 7.0 | 11.3 | 0.00 | 0.00 | 0.00 | 66 | 1015.9 |
| 20260905210516 | 86 | 90 | 3.5 | 11.3 | 0.00 | 0.00 | 0.00 | 68 | 1016.3 |
| 20260905205516 | 85 | 68 | 3.5 | 8.7 | 0.00 | 0.00 | 0.00 | 68 | 1016.4 |
| 20260905204536 | 85 | 68 | 4.3 | 9.6 | 0.00 | 0.00 | 0.00 | 67 | 1016.3 |
| 20260905203516 | 85 | 90 | 4.3 | 8.7 | 0.00 | 0.00 | 0.00 | 68 | 1016.6 |
| 20260905202516 | 84 | 113 | 2.6 | 5.2 | 0.00 | 0.00 | 0.00 | 70 | 1016.6 |
| 20260905201516 | 84 | 45 | 2.6 | 7.8 | 0.00 | 0.00 | 0.00 | 71 | 1017.1 |
| 20260905200536 | 84 | 90 | 2.6 | 7.8 | 0.00 | 0.00 | 0.00 | 70 | 1017.1 |
| 20260905195536 | 83 | 68 | 2.6 | 7.8 | 0.00 | 0.00 | 0.00 | 71 | 1017.3 |
| 20260905194516 | 83 | 45 | 2.6 | 5.2 | 0.00 | 0.00 | 0.00 | 72 | 1017.2 |
| 20260905193536 | 83 | 68 | 3.5 | 8.7 | 0.00 | 0.00 | 0.00 | 72 | 1017.5 |
| 20260905192516 | 83 | 113 | 2.6 | 7.0 | 0.00 | 0.00 | 0.00 | 73 | 1017.7 |
| 20260905191516 | 83 | 158 | 2.6 | 6.1 | 0.00 | 0.00 | 0.00 | 73 | 1017.5 |
| 20260905190516 | 82 | 158 | 2.6 | 6.1 | 0.00 | 0.00 | 0.00 | 75 | 1017.6 |
| 20260905185536 | 81 | 90 | 2.6 | 7.0 | 0.00 | 0.00 | 0.00 | 77 | 1017.5 |
| 20260905184516 | 80 | 180 | 2.6 | 7.8 | 0.00 | 0.00 | 0.00 | 77 | 1017.6 |
| 20260905183616 | 80 | 45 | 2.6 | 5.2 | 0.00 | 0.00 | 0.00 | 78 | 1017.5 |
| 20260905182516 | 79 | 113 | 0.9 | 2.6 | 0.00 | 0.00 | 0.00 | 79 | 1017.6 |
| 20260905181516 | 79 | 113 | 4.3 | 8.7 | 0.00 | 0.00 | 0.00 | 80 | 1017.7 |
| 20260905180516 | 78 | 180 | 2.6 | 6.1 | 0.00 | 0.00 | 0.00 | 84 | 1017.8 |
| 20260905175516 | 76 | 68 | 0.9 | 2.6 | 0.00 | 0.00 | 0.00 | 89 | 1017.8 |
| 20260905174516 | 75 | 45 | 2.6 | 5.2 | 0.00 | 0.00 | 0.00 | 90 | 1017.7 |